Regional Weather Roundup
Issued by NWS

Home | Current Version | Previous Version | Graphics & Text | Print | Product List | Glossary On
Versions: 1 2 3 4 5 6 7 8 9 10 11 12 13 14 15 16 17 18 19 20 21 22 23 24 25 26 27 28 29 30 31 32 33 34 35 36 37 38 39 40 41 42 43 44 45 46 47 48 49 50
000
ASUS43 KIND 251909
RWRIN

WEATHER ROUNDUP FOR INDIANA
NATIONAL WEATHER SERVICE INDIANAPOLIS IN
200 PM EST TUE NOV 25 2014

NOTE: "FAIR" INDICATES FEW OR NO CLOUDS BELOW 12,000 FEET WITH NO
SIGNIFICANT WEATHER AND/OR OBSTRUCTIONS TO VISIBILITY.

* - STATION DOES NOT REPORT WEATHER SUCH AS PRECIPITATION OR FOG.

+ - STATION NOT QUALITY CONTROLLED BY THE NATIONAL WEATHER SERVICE.
    USE DATA WITH CAUTION...ESPECIALLY DEWPOINT AND RELATIVE
    HUMIDITY OBSERVATIONS.

INZ001>003-010>013-019-020-252000-
NORTHWEST INDIANA

CITY           SKY/WX    TMP DP  RH WIND       PRES   REMARKS
GARY /AIRPORT/ PTSUNNY   28  18  64 W14       30.12R WCI  17
KNOX *+        PTSUNNY   27  20  73 SW12      30.11R WCI  17
LA PORTE +     CLOUDY    30  22  71 SW9       30.10R WCI  21
MICHIGAN CITY+ CLOUDY    28  19  69 W7        30.10R WCI  21
MONTICELLO +   CLOUDY    27  20  77 W12       30.14R WCI  16
RENSSELAER +   CLOUDY    28  23  80 W14       30.15R WCI  17
VALPARAISO     CLOUDY    26  18  71 SW14      30.12R WCI  14

$$

LMZ046-743>745-252000-
SOUTHERN LAKE MICHIGAN

STATION/POSITION TIME  TEMP WIND        PRES
                       AIR  DIR/SP/G
                 (UTC) (F)  (DEG/KT/KT) (MB)
MICHIGAN CITY    1900   26  230/ 13/ 16   N/A

$$

INZ004-005-014>016-021>024-252000-
NORTH CENTRAL INDIANA

CITY           SKY/WX    TMP DP  RH WIND       PRES   REMARKS
ELKHART        CLOUDY    27  19  74 W8        30.09R WCI  18
GOSHEN         CLOUDY   N/A N/A N/A SW12      30.08R
LOGANSPORT +   CLOUDY    28  21  74 W14       30.14R WCI  17
PERU/GRISSOM   CLOUDY    27  25  92 W15       30.12R WCI  15
ROCHESTER +    PTSUNNY   28  23  80 SW10      30.13R WCI  19
SOUTH BEND     CLOUDY    27  20  75 SW9       30.09R WCI  18
WARSAW +       CLOUDY    28  19  69 W12       30.10R WCI  18

$$

INZ006>009-017-018-025>027-252000-
NORTHEAST INDIANA

CITY           SKY/WX    TMP DP  RH WIND       PRES   REMARKS
ANGOLA *+      CLOUDY    27  19  74 W9        30.06R WCI  17
AUBURN +       CLOUDY    30  21  69 W9        30.09R WCI  22
FORT WAYNE     CLOUDY    29  21  72 W15       30.10R WCI  18
HUNTINGTON +   CLOUDY    28  20  70 W13       30.11R WCI  17

$$

INZ028-029-035-036-043>045-051>053-252000-
WEST CENTRAL INDIANA

CITY           SKY/WX    TMP DP  RH WIND       PRES   REMARKS
GREENCASTLE +  CLOUDY    30  25  80 W6        30.15S WCI  24
LAFAYETTE      CLOUDY    26  21  81 W10       30.16R WCI  16
TERRE HAUTE    CLOUDY    31  24  75 W7        30.17S WCI  24

$$

INZ030>032-037>040-046>048-054>057-064-065-252000-
CENTRAL INDIANA

CITY           SKY/WX    TMP DP  RH WIND       PRES   REMARKS
ANDERSON       CLOUDY    30  25  80 W12G17    30.12R WCI  21
CP ATTERBURY + CLOUDY    36  27  69 W7        30.14S
COLUMBUS       CLOUDY    37  30  75 NW12      30.14S
FRANKFORT +    CLOUDY    29  25  86 SW10      30.14S WCI  19
GREENWOOD *+   CLOUDY    32  23  69 W10G17    30.14R WCI  24
INDIANAPOLIS   CLOUDY    30  23  75 W14G21    30.13R WCI  19
-EAGLE CREEK   CLOUDY    30  23  75 W10       30.13R WCI  21
KOKOMO *+      CLOUDY    27  21  80 W14       30.13R WCI  15
MARION +         N/A     27  23  83 W13       30.13R WCI  16
MT COMFORT *+  CLOUDY    32  21  64 W14       30.12S WCI  22
SHELBYVILLE    CLOUDY    35  27  72 W10       30.12S WCI  27
ZIONSVILLE +   CLOUDY    30  23  75 W9G17     30.13S WCI  22

$$

INZ033-034-041-042-049-050-058-059-252000-
EAST CENTRAL INDIANA

CITY           SKY/WX    TMP DP  RH WIND       PRES   REMARKS
MUNCIE         CLOUDY    30  24  78 W14       30.11R WCI  19

$$

INZ060-061-067>069-081>083-085>088-252000-
SOUTHWEST INDIANA

CITY           SKY/WX    TMP DP  RH WIND       PRES   REMARKS
EVANSVILLE     MOSUNNY   41  27  57 W9        30.17F
HUNTINGBURG *+ MOSUNNY   43  27  52 NW9       30.16F
WASHINGTON +   CLOUDY    35  29  79 NW10      30.16F WCI  27

$$

INZ062-063-066-070>080-084-089>092-252000-
SOUTH CENTRAL AND SOUTHEAST INDIANA

CITY           SKY/WX    TMP DP  RH WIND       PRES   REMARKS
BLOOMINGTON    CLOUDY    33  26  75 W8        30.14S WCI  26

$$




USA.gov is the U.S. government's official web portal to all federal, state and local government web resources and services.